Imperial, NE

8:48 AM MST on February 26, 2017 (GMT -0700)
Imperial Municipal

Weather History for KIML - June, 2013

Change the Weather History Date:

Sunday, June 9, 2013

  Actual Average Record
Temperature  
Mean Temperature 69 °F 68 °F  
Max Temperature 87 °F 82 °F 102 °F (2012)
Min Temperature 51 °F 54 °F 38 °F (1966)
Degree Days  
Heating Degree Days 0 1  
Month to date heating degree days 24 19  
Since 1 June heating degree days 24 19  
Cooling Degree Days 4 5  
Month to date cooling degree days 14 35  
Year to date cooling degree days 82 79  
Since 1 June cooling degree days 14 35  
Growing Degree Days 20 (Base 50)    
Moisture  
Dew Point 46 °F    
Average Humidity 52    
Maximum Humidity 83    
Minimum Humidity 21    
Precipitation  
Precipitation 0.00 in 0.11 in 1.53 in (1987)
Sea Level Pressure  
Sea Level Pressure 29.89 in    
Wind  
Wind Speed 8 mph (NNW)    
Max Wind Speed 14 mph    
Max Gust Speed 17 mph    
Visibility 10 miles    
Events      
T = Trace of Precipitation, MM = Missing Value Source: NWS Daily Summary

Daily Weather History Graph

Daily Weather History Graph

Search for Another Location

Airport or City:

Trip Planner

Search our weather history database for the weather conditions in past years. The results will help you decide how hot, cold, wet, or windy it might be!

Date:

Astronomy

Jun. 09, 2013 Rise Set
Actual Time 5:15 AM MDT 8:16 PM MDT
Civil Twilight 4:42 AM MDT 8:49 PM MDT
Nautical Twilight 4:00 AM MDT 9:31 PM MDT
Astronomical Twilight 3:11 AM MDT 10:20 PM MDT
Moon 6:14 AM MDT (6/9) 9:04 PM MDT (6/9)
Length of Visible Light 16h 06m
Length of Day
15h 00m
New Moon, 1% of the Moon is Illuminated
Jun 9
New Moon
Jun 16
First Quarter
Jun 23
Full
Jun 29
Last Quarter
Jul 8
New

Hourly Weather History & Observations

Time (MDT) Temp. Dew Point Humidity Pressure Visibility Wind Dir Wind Speed Gust Speed Precip Events Conditions
12:53 AM 52.0 °F 46.0 °F 80% 29.93 in 10.0 mi WSW 6.9 mph - N/A   Clear
1:53 AM 53.1 °F 46.9 °F 80% 29.91 in 10.0 mi West 8.1 mph - N/A   Clear
2:53 AM 52.0 °F 46.9 °F 83% 29.92 in 10.0 mi WSW 11.5 mph - N/A   Clear
3:53 AM 53.1 °F 46.0 °F 77% 29.89 in 10.0 mi West 8.1 mph - N/A   Clear
4:53 AM 53.1 °F 46.0 °F 77% 29.92 in 10.0 mi West 8.1 mph - N/A   Clear
5:53 AM 54.0 °F 46.0 °F 75% 29.93 in 10.0 mi West 11.5 mph - N/A   Clear
6:53 AM 57.0 °F 48.0 °F 72% 29.95 in 10.0 mi NNW 10.4 mph - N/A   Clear
7:53 AM 63.0 °F 51.1 °F 65% 29.94 in 10.0 mi North 9.2 mph - N/A   Clear
8:53 AM 69.1 °F 46.9 °F 45% 29.96 in 10.0 mi North 6.9 mph - N/A   Clear
9:53 AM 72.0 °F 46.9 °F 41% 29.96 in 10.0 mi North 4.6 mph - N/A   Clear
10:53 AM 75.9 °F 46.0 °F 35% 29.95 in 10.0 mi NNW 9.2 mph - N/A   Clear
11:53 AM 77.0 °F 44.1 °F 31% 29.93 in 10.0 mi West 4.6 mph - N/A   Clear
12:53 PM 80.1 °F 43.0 °F 27% 29.91 in 10.0 mi NNW 5.8 mph - N/A   Clear
1:53 PM 82.9 °F 44.1 °F 25% 29.89 in 10.0 mi NW 3.5 mph - N/A   Clear
2:53 PM 84.9 °F 43.0 °F 23% 29.86 in 10.0 mi NW 8.1 mph - N/A   Clear
3:53 PM 86.0 °F 43.0 °F 22% 29.84 in 10.0 mi NE 5.8 mph - N/A   Clear
4:53 PM 87.1 °F 42.1 °F 21% 29.83 in 10.0 mi Variable 5.8 mph - N/A   Clear
5:53 PM 86.0 °F 43.0 °F 22% 29.82 in 10.0 mi ENE 6.9 mph - N/A   Clear
6:53 PM 82.9 °F 45.0 °F 26% 29.81 in 10.0 mi East 11.5 mph - N/A   Clear
7:53 PM 77.0 °F 46.0 °F 33% 29.82 in 10.0 mi ESE 10.4 mph - N/A   Clear
8:53 PM 70.0 °F 46.9 °F 44% 29.83 in 10.0 mi ESE 9.2 mph - N/A   Clear
9:53 PM 64.9 °F 48.0 °F 54% 29.86 in 10.0 mi ESE 6.9 mph - N/A   Clear
10:53 PM 62.1 °F 46.9 °F 58% 29.87 in 10.0 mi SE 6.9 mph - N/A   Clear
11:53 PM 59.0 °F 46.9 °F 64% 29.87 in 10.0 mi SE 8.1 mph - N/A   Clear